Orbital Elements at Epoch 2459200.5 (2020-Dec-17.0) TDB
Reference: JPL 18 (heliocentric ecliptic J2000)
Element | Value | Uncertainty (1-sigma) | Units |
e | .07556260513711928 | 5.3015e-08 | |
a | 5.232030272825171 | 1.0496e-07 | au |
q | 4.836684435254228 | 3.0582e-07 | au |
i | 8.703029919171644 | 5.2593e-06 | deg |
node | 164.4022792969321 | 3.3618e-05 | deg |
peri | 212.493365381371 | 5.1938e-05 | deg |
M | 239.2028241862703 | 4.4316e-05 | deg |
tp | 2460667.256694745427 (2024-Dec-22.75669475) | 0.00056593 | TDB |
period | 4371.231417881691 11.97 | 0.00013153 3.601e-07 | d yr |
n | .08235665550154213 | 2.4781e-09 | deg/d |
Q | 5.627376110396114 | 1.1289e-07 | au |
|
| | Orbit Determination Parameters
Additional Information
|